Sich 1 Rocket - Orbit

View from above orbital plane
View from above orbital plane
View from above satellite
View from above satellite

Ground track
Ground track

The orbit data is extracted from the following two-line orbital elements,

1 23659U 95046C   13168.75965383  .00000151  00000-0  17961-4 0  6312
2 23659 082.5297 219.9278 0024842 331.6760 160.4773 14.77487494958830
Epoch (UTC): 17 June 2013 18:13:54
Eccentricity: 0.0024842
inclination: 82.5297°
perigee height: 620 km
apogee height: 654 km
right ascension of ascending node: 219.9278°
argument of perigee: 331.6760°
revolutions per day: 14.77487494
mean anomaly at epoch: 160.4773°
orbit number at epoch: 95883

The dashed part of the orbit path shows where the satellite is in the earth's shadow,  

Developed and maintained by Chris Peat, Heavens-Above GmbH. Please read the updated FAQ before sending e-mail. Imprint. DLR